Location: Celina Division
(33.3022°N, 96.7580°W)
Time: 02:15:09
(UTC+00:00)

Nadezhda 4 Rocket - Pass Details

Date: 12 July 2022
Orbit: 949 x 992 km, 82.9° (Epoch: 08 August)

Event Time Altitude Azimuth Distance (km) Brightness Sun altitude
Rises 10:54:47 0° 187° (S) 3,634 6.6 -6.7°
Reaches altitude 10° 10:57:17 10° 188° (S) 2,686 5.9 -6.2°
Maximum altitude 11:03:26 81° 276° (W) 970 4.0 -5.1°
Drops below altitude 10° 11:09:34 10° 4° (N) 2,680 6.8 -4.0°
Sets 11:12:03 0° 5° (N) 3,627 7.5 -3.6°
